Overview Statistics Trail Chart Weather Telemetry Raw packets
 

This is the latest recevied weather packets stored in our database for station/object KC4JIR. If no packets are shown the sender has not sent any weather packets the latest 10 day(s).

<< 13 14 15 16 17 18 19 >>
Time Temp. Humidity Pressure Rain* Wind** Luminosity Snow
1788526267 24.44° C 99% 1014.2 hPa 0 mm - 81 W/m² -
1788525962 24.44° C 99% 1014.4 hPa 0 mm - 69 W/m² -
1788525658 24.44° C 99% 1014.5 hPa 0 mm - 76 W/m² -
1788525358 23.89° C 99% 1014.4 hPa 0 mm - 84 W/m² -
1788525054 23.89° C 99% 1014.5 hPa 0 mm - 81 W/m² -
1788524748 23.89° C 99% 1014.4 hPa 0 mm - 75 W/m² -
1788524443 23.33° C 99% 1014.4 hPa 0 mm - 50 W/m² -
1788524138 23.33° C 99% 1014.4 hPa 0 mm - 36 W/m² -
1788523834 23.33° C 99% 1014.6 hPa 0 mm - 27 W/m² -
1788523530 23.33° C 99% 1014.3 hPa 0 mm - 20 W/m² -
1788523226 23.33° C 99% 1014.4 hPa 0 mm - 17 W/m² -
1788522921 23.33° C 99% 1014.4 hPa 0 mm - 16 W/m² -
1788522621 23.33° C 99% 1014.5 hPa 0 mm - 16 W/m² -
1788522316 23.33° C 99% 1014.4 hPa 0 mm - 12 W/m² -
1788522010 22.78° C 99% 1014.4 hPa 0 mm - 12 W/m² -
1788521710 22.78° C 99% 1014.4 hPa 0 mm - 11 W/m² -
1788521404 22.78° C 99% 1014.1 hPa 0 mm - 6 W/m² -
1788521100 22.78° C 99% 1014 hPa 0 mm - 4 W/m² -
1788520795 22.78° C 99% 1014.2 hPa 0 mm - 3 W/m² -
1788520491 22.78° C 99% 1014.1 hPa 0 mm - 0 W/m² -
1788520187 22.78° C 99% 1014.2 hPa 0 mm - 0 W/m² -
1788519886 22.78° C 99% 1014.1 hPa 0 mm - 0 W/m² -
1788519581 22.78° C 99% 1014 hPa 0 mm - 0 W/m² -
1788519276 22.78° C 99% 1013.9 hPa 0 mm - 0 W/m² -
1788518971 22.78° C 99% 1014.3 hPa 0 mm - 0 W/m² -

* Rain latest hour (hover to see other rain measurements)
** Current wind speed in m/s (hover to see current wind gust speed)